Time,TemperatureF,DewpointF,PressureIn,WindDirection,WindDirectionDegrees,WindSpeedMPH,WindSpeedGustMPH,Humidity,HourlyPrecipIn,Conditions,Clouds,dailyrainin,SoftwareType,DateUTC
2013-08-24 00:01:00,55.4,53.1,30.14,ENE,60,0.0,0.0,92,0.00,,,0.00,Wunderground v.1.15,2013-08-24 04:01:00,
2013-08-24 00:02:00,55.4,53.1,30.14,ENE,60,0.0,0.0,92,0.00,,,0.00,Wunderground v.1.15,2013-08-24 04:02:00,
2013-08-24 00:08:00,55.6,53.3,30.14,SE,129,0.0,0.0,92,0.00,,,0.00,Wunderground v.1.15,2013-08-24 04:08:00,
2013-08-24 00:09:00,55.7,53.4,30.14,SE,129,0.0,0.0,92,0.00,,,0.00,Wunderground v.1.15,2013-08-24 04:09:00,
2013-08-24 00:10:00,55.7,53.4,30.14,SE,130,0.0,0.0,92,0.00,,,0.00,Wunderground v.1.15,2013-08-24 04:10:00,
2013-08-24 00:15:00,55.6,53.3,30.15,SE,129,0.0,0.0,92,0.00,,,0.00,Wunderground v.1.15,2013-08-24 04:15:00,
2013-08-24 00:20:00,55.7,53.4,30.15,SE,129,0.0,0.0,92,0.00,,,0.00,Wunderground v.1.15,2013-08-24 04:20:00,
2013-08-24 00:27:00,56.0,53.7,30.15,SE,130,0.0,0.0,92,0.00,,,0.00,Wunderground v.1.15,2013-08-24 04:27:00,
2013-08-24 00:32:00,56.2,53.9,30.15,SE,130,0.0,0.0,92,0.00,,,0.00,Wunderground v.1.15,2013-08-24 04:32:00,
2013-08-24 00:38:00,56.3,54.0,30.15,SE,129,0.0,0.0,92,0.00,,,0.00,Wunderground v.1.15,2013-08-24 04:38:00,
2013-08-24 00:43:00,56.5,54.2,30.15,SE,129,0.0,0.0,92,0.00,,,0.00,Wunderground v.1.15,2013-08-24 04:43:00,
2013-08-24 00:48:00,56.7,54.4,30.15,SE,131,0.0,0.0,92,0.00,,,0.00,Wunderground v.1.15,2013-08-24 04:48:00,
2013-08-24 00:54:00,57.0,54.4,30.15,SE,131,0.0,0.0,91,0.00,,,0.00,Wunderground v.1.15,2013-08-24 04:54:00,
2013-08-24 00:59:00,57.2,54.6,30.15,SE,131,0.0,0.0,91,0.00,,,0.00,Wunderground v.1.15,2013-08-24 04:59:00,
2013-08-24 01:05:00,57.7,54.8,30.15,SE,131,0.0,0.0,90,0.00,,,0.00,Wunderground v.1.15,2013-08-24 05:05:00,
2013-08-24 01:11:00,58.2,55.0,30.15,SSE,160,0.0,0.0,89,0.00,,,0.00,Wunderground v.1.15,2013-08-24 05:11:00,
2013-08-24 01:16:00,58.6,55.4,30.15,SSE,160,0.0,0.0,89,0.00,,,0.00,Wunderground v.1.15,2013-08-24 05:16:00,
2013-08-24 01:21:00,59.0,55.4,30.15,ESE,114,0.0,0.0,88,0.00,,,0.00,Wunderground v.1.15,2013-08-24 05:21:00,
2013-08-24 01:26:00,59.2,55.3,30.15,ESE,114,0.0,0.0,87,0.00,,,0.00,Wunderground v.1.15,2013-08-24 05:26:00,
2013-08-24 01:31:00,59.3,55.4,30.15,ESE,114,0.0,0.0,87,0.00,,,0.00,Wunderground v.1.15,2013-08-24 05:31:00,
2013-08-24 01:38:00,59.6,55.4,30.15,ENE,63,0.0,1.0,86,0.00,,,0.00,Wunderground v.1.15,2013-08-24 05:38:00,
2013-08-24 01:43:00,59.9,55.7,30.16,ESE,117,0.0,1.0,86,0.00,,,0.00,Wunderground v.1.15,2013-08-24 05:43:00,
2013-08-24 01:49:00,59.9,55.7,30.16,NNE,20,0.0,1.0,86,0.00,,,0.00,Wunderground v.1.15,2013-08-24 05:49:00,
2013-08-24 01:55:00,59.8,55.6,30.16,SE,127,0.0,1.0,86,0.00,,,0.00,Wunderground v.1.15,2013-08-24 05:55:00,
2013-08-24 02:01:00,59.9,55.7,30.16,SE,128,0.0,1.0,86,0.00,,,0.00,Wunderground v.1.15,2013-08-24 06:01:00,
2013-08-24 02:06:00,59.8,55.6,30.16,SE,127,0.0,1.0,86,0.00,,,0.00,Wunderground v.1.15,2013-08-24 06:06:00,
2013-08-24 02:11:00,59.6,55.4,30.16,SE,129,0.0,3.0,86,0.00,,,0.00,Wunderground v.1.15,2013-08-24 06:11:00,
2013-08-24 02:18:00,59.4,55.2,30.16,SE,124,0.0,3.0,86,0.00,,,0.00,Wunderground v.1.15,2013-08-24 06:18:00,
2013-08-24 02:23:00,59.3,55.1,30.16,SE,125,0.0,3.0,86,0.00,,,0.00,Wunderground v.1.15,2013-08-24 06:23:00,
2013-08-24 02:28:00,59.2,55.0,30.16,SE,126,0.0,3.0,86,0.00,,,0.00,Wunderground v.1.15,2013-08-24 06:28:00,
2013-08-24 02:34:00,58.8,54.9,30.16,SE,125,0.0,3.0,87,0.00,,,0.00,Wunderground v.1.15,2013-08-24 06:34:00,
2013-08-24 02:40:00,58.0,54.5,30.16,SE,126,0.0,3.0,88,0.00,,,0.00,Wunderground v.1.15,2013-08-24 06:40:00,
2013-08-24 02:46:00,57.4,54.2,30.16,SE,125,0.0,3.0,89,0.00,,,0.00,Wunderground v.1.15,2013-08-24 06:46:00,
2013-08-24 02:51:00,56.8,53.6,30.16,SE,124,0.0,0.0,89,0.00,,,0.00,Wunderground v.1.15,2013-08-24 06:51:00,
2013-08-24 02:58:00,56.2,53.6,30.17,SE,126,0.0,0.0,91,0.00,,,0.00,Wunderground v.1.15,2013-08-24 06:58:00,
2013-08-24 03:04:00,55.9,53.3,30.17,WSW,256,0.0,0.0,91,0.00,,,0.00,Wunderground v.1.15,2013-08-24 07:04:00,
2013-08-24 03:10:00,55.7,53.4,30.17,WSW,256,0.0,0.0,92,0.00,,,0.00,Wunderground v.1.15,2013-08-24 07:10:00,
2013-08-24 03:15:00,55.4,53.1,30.17,WSW,256,0.0,0.0,92,0.00,,,0.00,Wunderground v.1.15,2013-08-24 07:15:00,
2013-08-24 03:21:00,55.2,52.9,30.17,WSW,256,0.0,0.0,92,0.00,,,0.00,Wunderground v.1.15,2013-08-24 07:21:00,
2013-08-24 03:28:00,55.1,53.1,30.17,WSW,255,0.0,0.0,93,0.00,,,0.00,Wunderground v.1.15,2013-08-24 07:28:00,
2013-08-24 03:33:00,54.8,52.5,30.17,WSW,255,0.0,0.0,92,0.00,,,0.00,Wunderground v.1.15,2013-08-24 07:33:00,
2013-08-24 03:39:00,54.5,52.5,30.17,WSW,255,0.0,0.0,93,0.00,,,0.00,Wunderground v.1.15,2013-08-24 07:39:00,
2013-08-24 03:45:00,54.2,52.2,30.17,WSW,255,0.0,0.0,93,0.00,,,0.00,Wunderground v.1.15,2013-08-24 07:45:00,
2013-08-24 03:50:00,54.1,52.1,30.18,WSW,255,0.0,0.0,93,0.00,,,0.00,Wunderground v.1.15,2013-08-24 07:50:00,
2013-08-24 03:56:00,53.9,51.9,30.18,WSW,255,0.0,0.0,93,0.00,,,0.00,Wunderground v.1.15,2013-08-24 07:56:00,
2013-08-24 04:01:00,53.7,51.7,30.17,WSW,255,0.0,0.0,93,0.00,,,0.00,Wunderground v.1.15,2013-08-24 08:01:00,
2013-08-24 04:07:00,53.6,51.6,30.18,WSW,255,0.0,0.0,93,0.00,,,0.00,Wunderground v.1.15,2013-08-24 08:07:00,
2013-08-24 04:14:00,53.3,51.3,30.18,WSW,255,0.0,0.0,93,0.00,,,0.00,Wunderground v.1.15,2013-08-24 08:14:00,
2013-08-24 04:19:00,53.3,51.3,30.18,WSW,255,0.0,0.0,93,0.00,,,0.00,Wunderground v.1.15,2013-08-24 08:19:00,
2013-08-24 04:24:00,53.2,51.5,30.18,WSW,255,0.0,0.0,94,0.00,,,0.00,Wunderground v.1.15,2013-08-24 08:24:00,
2013-08-24 04:30:00,52.8,50.8,30.18,WSW,255,0.0,0.0,93,0.00,,,0.00,Wunderground v.1.15,2013-08-24 08:30:00,
2013-08-24 04:35:00,52.7,50.7,30.18,WSW,255,0.0,0.0,93,0.00,,,0.00,Wunderground v.1.15,2013-08-24 08:35:00,
2013-08-24 04:40:00,52.8,51.1,30.18,WSW,255,0.0,0.0,94,0.00,,,0.00,Wunderground v.1.15,2013-08-24 08:40:00,
2013-08-24 04:45:00,52.6,50.9,30.18,WSW,255,0.0,0.0,94,0.00,,,0.00,Wunderground v.1.15,2013-08-24 08:45:00,
2013-08-24 04:50:00,52.4,50.7,30.18,WSW,255,0.0,0.0,94,0.00,,,0.00,Wunderground v.1.15,2013-08-24 08:50:00,
2013-08-24 04:56:00,52.1,50.4,30.19,WSW,255,0.0,0.0,94,0.00,,,0.00,Wunderground v.1.15,2013-08-24 08:56:00,
2013-08-24 05:01:00,52.1,50.4,30.19,WSW,255,0.0,0.0,94,0.00,,,0.00,Wunderground v.1.15,2013-08-24 09:01:00,
2013-08-24 05:08:00,52.2,50.5,30.19,WSW,255,0.0,0.0,94,0.00,,,0.00,Wunderground v.1.15,2013-08-24 09:08:00,
2013-08-24 05:14:00,52.2,50.5,30.19,WSW,255,0.0,0.0,94,0.00,,,0.00,Wunderground v.1.15,2013-08-24 09:14:00,
2013-08-24 05:20:00,52.0,50.3,30.19,WSW,255,0.0,0.0,94,0.00,,,0.00,Wunderground v.1.15,2013-08-24 09:20:00,
2013-08-24 05:26:00,51.9,50.2,30.19,WSW,255,0.0,0.0,94,0.00,,,0.00,Wunderground v.1.15,2013-08-24 09:26:00,
2013-08-24 05:31:00,51.8,50.1,30.19,WSW,255,0.0,0.0,94,0.00,,,0.00,Wunderground v.1.15,2013-08-24 09:31:00,
2013-08-24 05:37:00,52.1,50.4,30.20,WSW,255,0.0,0.0,94,0.00,,,0.00,Wunderground v.1.15,2013-08-24 09:37:00,
2013-08-24 05:43:00,52.2,50.5,30.20,WSW,255,0.0,0.0,94,0.00,,,0.00,Wunderground v.1.15,2013-08-24 09:43:00,
2013-08-24 05:50:00,51.9,50.2,30.20,WSW,255,0.0,0.0,94,0.00,,,0.00,Wunderground v.1.15,2013-08-24 09:50:00,
2013-08-24 05:56:00,51.7,50.0,30.20,WSW,255,0.0,0.0,94,0.00,,,0.00,Wunderground v.1.15,2013-08-24 09:56:00,
2013-08-24 06:01:00,51.6,49.9,30.21,WSW,255,0.0,0.0,94,0.00,,,0.00,Wunderground v.1.15,2013-08-24 10:01:00,
2013-08-24 06:08:00,51.8,50.1,30.21,WSW,255,0.0,0.0,94,0.00,,,0.00,Wunderground v.1.15,2013-08-24 10:08:00,
2013-08-24 06:14:00,51.6,49.9,30.21,WSW,255,0.0,0.0,94,0.00,,,0.00,Wunderground v.1.15,2013-08-24 10:14:00,
2013-08-24 06:19:00,51.3,49.6,30.21,WSW,255,0.0,0.0,94,0.00,,,0.00,Wunderground v.1.15,2013-08-24 10:19:00,
2013-08-24 06:25:00,51.1,49.4,30.21,WSW,255,0.0,0.0,94,0.00,,,0.00,Wunderground v.1.15,2013-08-24 10:25:00,
2013-08-24 06:30:00,51.2,49.5,30.21,WSW,255,0.0,0.0,94,0.00,,,0.00,Wunderground v.1.15,2013-08-24 10:30:00,
2013-08-24 06:38:00,51.2,49.5,30.22,WSW,255,0.0,0.0,94,0.00,,,0.00,Wunderground v.1.15,2013-08-24 10:38:00,
2013-08-24 06:43:00,51.2,49.5,30.22,WSW,255,0.0,0.0,94,0.00,,,0.00,Wunderground v.1.15,2013-08-24 10:43:00,
2013-08-24 06:49:00,51.0,49.3,30.22,WSW,255,0.0,0.0,94,0.00,,,0.00,Wunderground v.1.15,2013-08-24 10:49:00,
2013-08-24 06:54:00,51.1,49.4,30.23,WSW,255,0.0,0.0,94,0.00,,,0.00,Wunderground v.1.15,2013-08-24 10:54:00,
2013-08-24 06:59:00,51.1,49.4,30.23,WSW,255,0.0,0.0,94,0.00,,,0.00,Wunderground v.1.15,2013-08-24 10:59:00,
2013-08-24 07:05:00,51.2,49.5,30.23,WSW,255,0.0,0.0,94,0.00,,,0.00,Wunderground v.1.15,2013-08-24 11:05:00,
2013-08-24 07:11:00,51.1,49.4,30.23,WSW,255,0.0,0.0,94,0.00,,,0.00,Wunderground v.1.15,2013-08-24 11:11:00,
2013-08-24 07:18:00,51.1,49.4,30.24,WSW,255,0.0,0.0,94,0.00,,,0.00,Wunderground v.1.15,2013-08-24 11:18:00,
2013-08-24 07:23:00,51.0,49.3,30.24,WSW,255,0.0,0.0,94,0.00,,,0.00,Wunderground v.1.15,2013-08-24 11:23:00,
2013-08-24 07:29:00,50.9,49.2,30.24,WSW,255,0.0,0.0,94,0.00,,,0.00,Wunderground v.1.15,2013-08-24 11:29:00,
2013-08-24 07:35:00,51.5,50.1,30.24,WSW,255,0.0,0.0,95,0.00,,,0.00,Wunderground v.1.15,2013-08-24 11:35:00,
2013-08-24 07:41:00,52.1,50.7,30.24,WSW,255,0.0,0.0,95,0.00,,,0.00,Wunderground v.1.15,2013-08-24 11:41:00,
2013-08-24 07:46:00,52.5,51.1,30.25,WSW,255,0.0,0.0,95,0.00,,,0.00,Wunderground v.1.15,2013-08-24 11:46:00,
2013-08-24 07:51:00,52.9,51.5,30.25,WSW,255,0.0,0.0,95,0.00,,,0.00,Wunderground v.1.15,2013-08-24 11:51:00,
2013-08-24 07:58:00,53.3,51.9,30.25,WSW,255,0.0,0.0,95,0.00,,,0.00,Wunderground v.1.15,2013-08-24 11:58:00,
2013-08-24 08:04:00,53.8,52.4,30.25,WSW,255,0.0,0.0,95,0.00,,,0.00,Wunderground v.1.15,2013-08-24 12:04:00,
2013-08-24 08:09:00,54.2,52.8,30.26,WSW,255,0.0,0.0,95,0.00,,,0.00,Wunderground v.1.15,2013-08-24 12:09:00,
2013-08-24 08:16:00,54.6,53.2,30.26,WSW,255,0.0,0.0,95,0.00,,,0.00,Wunderground v.1.15,2013-08-24 12:16:00,
2013-08-24 08:22:00,55.2,53.8,30.26,WSW,256,0.0,0.0,95,0.00,,,0.00,Wunderground v.1.15,2013-08-24 12:22:00,
2013-08-24 08:28:00,56.5,55.1,30.26,WSW,255,0.0,0.0,95,0.00,,,0.00,Wunderground v.1.15,2013-08-24 12:28:00,
2013-08-24 08:33:00,57.6,56.2,30.26,WSW,256,0.0,0.0,95,0.00,,,0.00,Wunderground v.1.15,2013-08-24 12:33:00,
2013-08-24 08:38:00,58.1,56.7,30.26,WSW,256,0.0,0.0,95,0.00,,,0.00,Wunderground v.1.15,2013-08-24 12:38:00,
2013-08-24 08:44:00,58.6,57.2,30.26,WSW,256,0.0,0.0,95,0.00,,,0.00,Wunderground v.1.15,2013-08-24 12:44:00,
2013-08-24 08:49:00,59.3,57.9,30.26,WSW,256,0.0,0.0,95,0.00,,,0.00,Wunderground v.1.15,2013-08-24 12:49:00,
2013-08-24 08:56:00,60.6,58.9,30.27,WSW,256,0.0,0.0,94,0.00,,,0.00,Wunderground v.1.15,2013-08-24 12:56:00,
2013-08-24 09:02:00,62.1,59.7,30.27,WSW,255,0.0,0.0,92,0.00,,,0.00,Wunderground v.1.15,2013-08-24 13:02:00,
2013-08-24 09:08:00,63.5,60.5,30.27,WSW,256,0.0,0.0,90,0.00,,,0.00,Wunderground v.1.15,2013-08-24 13:08:00,
2013-08-24 09:14:00,65.3,60.0,30.27,WSW,251,0.0,0.0,83,0.00,,,0.00,Wunderground v.1.15,2013-08-24 13:14:00,
2013-08-24 09:19:00,66.5,60.5,30.27,WSW,252,0.0,0.0,81,0.00,,,0.00,Wunderground v.1.15,2013-08-24 13:19:00,
2013-08-24 09:25:00,67.9,59.7,30.27,WSW,253,0.0,0.0,75,0.00,,,0.00,Wunderground v.1.15,2013-08-24 13:25:00,
2013-08-24 09:30:00,68.3,59.7,30.27,North,354,0.0,0.0,74,0.00,,,0.00,Wunderground v.1.15,2013-08-24 13:30:00,
2013-08-24 09:35:00,68.5,59.9,30.27,North,355,0.0,0.0,74,0.00,,,0.00,Wunderground v.1.15,2013-08-24 13:35:00,
2013-08-24 09:41:00,69.1,60.5,30.27,WNW,288,0.0,0.0,74,0.00,,,0.00,Wunderground v.1.15,2013-08-24 13:41:00,
2013-08-24 09:46:00,69.3,59.5,30.27,NNW,346,0.0,0.0,71,0.00,,,0.00,Wunderground v.1.15,2013-08-24 13:46:00,
2013-08-24 09:52:00,69.9,59.7,30.27,West,281,0.0,0.0,70,0.00,,,0.00,Wunderground v.1.15,2013-08-24 13:52:00,
2013-08-24 09:58:00,70.7,57.9,30.27,East,95,0.0,1.0,64,0.00,,,0.00,Wunderground v.1.15,2013-08-24 13:58:00,
2013-08-24 10:03:00,71.2,57.1,30.27,ESE,102,1.0,2.0,61,0.00,,,0.00,Wunderground v.1.15,2013-08-24 14:03:00,
2013-08-24 10:09:00,72.2,58.0,30.27,SE,136,0.0,4.0,61,0.00,,,0.00,Wunderground v.1.15,2013-08-24 14:09:00,
2013-08-24 10:14:00,72.5,56.4,30.27,East,99,0.0,4.0,57,0.00,,,0.00,Wunderground v.1.15,2013-08-24 14:14:00,
2013-08-24 10:19:00,72.8,56.2,30.27,ESE,109,1.0,4.0,56,0.00,,,0.00,Wunderground v.1.15,2013-08-24 14:19:00,
2013-08-24 10:24:00,73.2,55.0,30.27,NNE,22,1.0,4.0,53,0.00,,,0.00,Wunderground v.1.15,2013-08-24 14:24:00,
2013-08-24 10:30:00,73.3,54.1,30.27,East,94,1.0,7.0,51,0.00,,,0.00,Wunderground v.1.15,2013-08-24 14:30:00,
2013-08-24 10:36:00,73.5,54.8,30.28,WNW,294,1.0,7.0,52,0.00,,,0.00,Wunderground v.1.15,2013-08-24 14:36:00,
2013-08-24 10:42:00,74.1,54.3,30.28,North,356,1.0,7.0,50,0.00,,,0.00,Wunderground v.1.15,2013-08-24 14:42:00,
2013-08-24 10:47:00,74.8,54.9,30.27,East,87,1.0,7.0,50,0.00,,,0.00,Wunderground v.1.15,2013-08-24 14:47:00,
2013-08-24 10:53:00,75.0,55.1,30.27,NE,50,1.0,7.0,50,0.00,,,0.00,Wunderground v.1.15,2013-08-24 14:53:00,
2013-08-24 10:58:00,74.7,54.3,30.28,NNW,335,2.0,2.0,49,0.00,,,0.00,Wunderground v.1.15,2013-08-24 14:58:00,
2013-08-24 11:04:00,74.9,53.9,30.28,ESE,104,2.0,7.0,48,0.00,,,0.00,Wunderground v.1.15,2013-08-24 15:04:00,
2013-08-24 11:09:00,75.2,54.7,30.28,SE,135,2.0,5.0,49,0.00,,,0.00,Wunderground v.1.15,2013-08-24 15:09:00,
2013-08-24 11:15:00,75.6,55.1,30.28,ESE,112,1.0,5.0,49,0.00,,,0.00,Wunderground v.1.15,2013-08-24 15:15:00,
2013-08-24 11:21:00,75.7,55.7,30.28,ESE,108,2.0,5.0,50,0.00,,,0.00,Wunderground v.1.15,2013-08-24 15:21:00,
2013-08-24 11:26:00,75.5,55.0,30.28,ESE,114,2.0,5.0,49,0.00,,,0.00,Wunderground v.1.15,2013-08-24 15:26:00,
2013-08-24 11:35:00,76.0,55.5,30.28,East,98,2.0,5.0,49,0.00,,,0.00,Wunderground v.1.15,2013-08-24 15:35:00,
2013-08-24 11:41:00,76.1,56.1,30.28,SE,127,2.0,5.0,50,0.00,,,0.00,Wunderground v.1.15,2013-08-24 15:41:00,
2013-08-24 11:48:00,75.9,55.9,30.28,NNW,337,2.0,8.0,50,0.00,,,0.00,Wunderground v.1.15,2013-08-24 15:48:00,
2013-08-24 11:54:00,75.9,55.4,30.28,NNE,31,2.0,8.0,49,0.00,,,0.00,Wunderground v.1.15,2013-08-24 15:54:00,
2013-08-24 11:59:00,76.1,55.5,30.28,SE,127,2.0,8.0,49,0.00,,,0.00,Wunderground v.1.15,2013-08-24 15:59:00,
2013-08-24 12:04:00,76.5,54.8,30.27,ESE,114,3.0,8.0,47,0.00,,,0.00,Wunderground v.1.15,2013-08-24 16:04:00,
2013-08-24 12:10:00,76.6,54.3,30.28,ENE,63,3.0,9.0,46,0.00,,,0.00,Wunderground v.1.15,2013-08-24 16:10:00,
2013-08-24 12:16:00,76.7,54.4,30.27,ENE,71,2.0,9.0,46,0.00,,,0.00,Wunderground v.1.15,2013-08-24 16:16:00,
2013-08-24 12:21:00,76.8,55.0,30.27,SE,140,2.0,9.0,47,0.00,,,0.00,Wunderground v.1.15,2013-08-24 16:21:00,
2013-08-24 12:27:00,77.0,54.6,30.27,East,90,2.0,9.0,46,0.00,,,0.00,Wunderground v.1.15,2013-08-24 16:27:00,
2013-08-24 12:32:00,77.1,54.7,30.27,ESE,113,2.0,9.0,46,0.00,,,0.00,Wunderground v.1.15,2013-08-24 16:32:00,
2013-08-24 12:38:00,77.6,54.0,30.26,North,4,2.0,9.0,44,0.00,,,0.00,Wunderground v.1.15,2013-08-24 16:38:00,
2013-08-24 12:44:00,77.8,54.8,30.27,SE,134,1.0,9.0,45,0.00,,,0.00,Wunderground v.1.15,2013-08-24 16:44:00,
2013-08-24 12:49:00,78.1,53.1,30.27,ENE,78,1.0,7.0,42,0.00,,,0.00,Wunderground v.1.15,2013-08-24 16:49:00,
2013-08-24 12:54:00,78.2,53.9,30.26,East,82,2.0,7.0,43,0.00,,,0.00,Wunderground v.1.15,2013-08-24 16:54:00,
2013-08-24 13:00:00,78.1,55.0,30.26,ENE,77,2.0,7.0,45,0.00,,,0.00,Wunderground v.1.15,2013-08-24 17:00:00,
2013-08-24 13:07:00,78.3,54.6,30.26,East,93,2.0,7.0,44,0.00,,,0.00,Wunderground v.1.15,2013-08-24 17:07:00,
2013-08-24 13:13:00,78.8,54.4,30.26,ESE,118,2.0,7.0,43,0.00,,,0.00,Wunderground v.1.15,2013-08-24 17:13:00,
2013-08-24 13:18:00,78.4,53.4,30.26,West,276,2.0,7.0,42,0.00,,,0.00,Wunderground v.1.15,2013-08-24 17:18:00,
2013-08-24 13:23:00,78.7,52.3,30.26,ESE,118,3.0,7.0,40,0.00,,,0.00,Wunderground v.1.15,2013-08-24 17:23:00,
2013-08-24 13:29:00,78.6,53.6,30.26,East,100,2.0,7.0,42,0.00,,,0.00,Wunderground v.1.15,2013-08-24 17:29:00,
2013-08-24 13:35:00,78.8,55.0,30.26,East,85,2.0,7.0,44,0.00,,,0.00,Wunderground v.1.15,2013-08-24 17:35:00,
2013-08-24 13:40:00,78.8,54.4,30.26,North,356,2.0,8.0,43,0.00,,,0.00,Wunderground v.1.15,2013-08-24 17:40:00,
2013-08-24 13:46:00,79.0,51.9,30.25,NNE,30,2.0,8.0,39,0.00,,,0.00,Wunderground v.1.15,2013-08-24 17:46:00,
2013-08-24 13:52:00,79.3,53.6,30.25,ENE,73,1.0,8.0,41,0.00,,,0.00,Wunderground v.1.15,2013-08-24 17:52:00,
2013-08-24 13:59:00,79.5,53.1,30.25,NW,322,2.0,8.0,40,0.00,,,0.00,Wunderground v.1.15,2013-08-24 17:59:00,
2013-08-24 14:04:00,78.6,52.9,30.25,NW,309,2.0,8.0,41,0.00,,,0.00,Wunderground v.1.15,2013-08-24 18:04:00,
2013-08-24 14:09:00,78.6,55.5,30.25,NNW,329,2.0,6.0,45,0.00,,,0.00,Wunderground v.1.15,2013-08-24 18:09:00,
2013-08-24 14:15:00,79.1,52.7,30.25,West,278,1.0,6.0,40,0.00,,,0.00,Wunderground v.1.15,2013-08-24 18:15:00,
2013-08-24 14:20:00,79.2,54.1,30.25,NNW,343,1.0,6.0,42,0.00,,,0.00,Wunderground v.1.15,2013-08-24 18:20:00,
2013-08-24 14:25:00,79.8,53.3,30.25,NE,52,1.0,6.0,40,0.00,,,0.00,Wunderground v.1.15,2013-08-24 18:25:00,
2013-08-24 14:31:00,79.7,51.1,30.25,North,354,2.0,6.0,37,0.00,,,0.00,Wunderground v.1.15,2013-08-24 18:31:00,
2013-08-24 14:38:00,79.7,52.5,30.25,NNE,13,2.0,8.0,39,0.00,,,0.00,Wunderground v.1.15,2013-08-24 18:38:00,
2013-08-24 14:43:00,79.8,52.6,30.24,ESE,104,1.0,8.0,39,0.00,,,0.00,Wunderground v.1.15,2013-08-24 18:43:00,
2013-08-24 14:48:00,81.1,52.4,30.24,SSE,156,1.0,1.0,37,0.00,,,0.00,Wunderground v.1.15,2013-08-24 18:48:00,
2013-08-24 14:53:00,81.7,52.1,30.24,East,89,1.0,8.0,36,0.00,,,0.00,Wunderground v.1.15,2013-08-24 18:53:00,
2013-08-24 14:58:00,81.3,51.0,30.24,SE,124,1.0,1.0,35,0.00,,,0.00,Wunderground v.1.15,2013-08-24 18:58:00,
2013-08-24 15:04:00,81.6,51.3,30.24,SE,124,1.0,8.0,35,0.00,,,0.00,Wunderground v.1.15,2013-08-24 19:04:00,
2013-08-24 15:09:00,81.9,50.0,30.24,SE,146,1.0,6.0,33,0.00,,,0.00,Wunderground v.1.15,2013-08-24 19:09:00,
2013-08-24 15:16:00,81.3,49.4,30.24,SE,128,2.0,6.0,33,0.00,,,0.00,Wunderground v.1.15,2013-08-24 19:16:00,
2013-08-24 15:21:00,81.6,50.5,30.23,NW,326,1.0,6.0,34,0.00,,,0.00,Wunderground v.1.15,2013-08-24 19:21:00,
2013-08-24 15:28:00,81.4,49.5,30.23,NE,38,1.0,6.0,33,0.00,,,0.00,Wunderground v.1.15,2013-08-24 19:28:00,
2013-08-24 15:33:00,81.8,49.9,30.23,ENE,71,1.0,6.0,33,0.00,,,0.00,Wunderground v.1.15,2013-08-24 19:33:00,
2013-08-24 15:39:00,82.1,50.1,30.23,SE,125,1.0,6.0,33,0.00,,,0.00,Wunderground v.1.15,2013-08-24 19:39:00,
2013-08-24 15:45:00,82.3,51.1,30.23,East,89,1.0,6.0,34,0.00,,,0.00,Wunderground v.1.15,2013-08-24 19:45:00,
2013-08-24 15:50:00,82.4,52.0,30.23,ESE,103,1.0,6.0,35,0.00,,,0.00,Wunderground v.1.15,2013-08-24 19:50:00,
2013-08-24 15:56:00,82.8,50.8,30.23,SE,146,1.0,6.0,33,0.00,,,0.00,Wunderground v.1.15,2013-08-24 19:56:00,
2013-08-24 16:02:00,83.2,50.3,30.23,ENE,63,1.0,6.0,32,0.00,,,0.00,Wunderground v.1.15,2013-08-24 20:02:00,
2013-08-24 16:08:00,83.5,50.5,30.22,ENE,72,1.0,1.0,32,0.00,,,0.00,Wunderground v.1.15,2013-08-24 20:08:00,
2013-08-24 16:14:00,83.0,50.9,30.22,SE,129,1.0,6.0,33,0.00,,,0.00,Wunderground v.1.15,2013-08-24 20:14:00,
2013-08-24 16:19:00,82.2,51.0,30.22,SE,129,2.0,6.0,34,0.00,,,0.00,Wunderground v.1.15,2013-08-24 20:19:00,
2013-08-24 16:25:00,82.0,50.1,30.22,ESE,105,2.0,6.0,33,0.00,,,0.00,Wunderground v.1.15,2013-08-24 20:25:00,
2013-08-24 16:31:00,81.4,47.9,30.22,ESE,103,3.0,6.0,31,0.00,,,0.00,Wunderground v.1.15,2013-08-24 20:31:00,
2013-08-24 16:36:00,81.7,48.1,30.23,East,84,2.0,6.0,31,0.00,,,0.00,Wunderground v.1.15,2013-08-24 20:36:00,
2013-08-24 16:41:00,81.7,48.1,30.23,SE,134,1.0,8.0,31,0.00,,,0.00,Wunderground v.1.15,2013-08-24 20:41:00,
2013-08-24 16:47:00,83.0,48.4,30.22,SE,143,2.0,8.0,30,0.00,,,0.00,Wunderground v.1.15,2013-08-24 20:47:00,
2013-08-24 16:53:00,83.3,46.8,30.22,West,262,2.0,8.0,28,0.00,,,0.00,Wunderground v.1.15,2013-08-24 20:53:00,
2013-08-24 16:58:00,82.7,48.1,30.22,West,281,1.0,8.0,30,0.00,,,0.00,Wunderground v.1.15,2013-08-24 20:58:00,
2013-08-24 17:04:00,82.2,51.0,30.22,North,349,1.0,8.0,34,0.00,,,0.00,Wunderground v.1.15,2013-08-24 21:04:00,
2013-08-24 17:09:00,82.7,48.1,30.22,NW,308,1.0,8.0,30,0.00,,,0.00,Wunderground v.1.15,2013-08-24 21:09:00,
2013-08-24 17:15:00,82.8,49.1,30.22,WNW,284,1.0,8.0,31,0.00,,,0.00,Wunderground v.1.15,2013-08-24 21:15:00,
2013-08-24 17:21:00,82.6,54.4,30.22,WNW,293,1.0,5.0,38,0.00,,,0.00,Wunderground v.1.15,2013-08-24 21:21:00,
2013-08-24 17:27:00,81.8,49.9,30.23,NW,311,2.0,5.0,33,0.00,,,0.00,Wunderground v.1.15,2013-08-24 21:27:00,
2013-08-24 17:33:00,80.8,56.9,30.23,NNW,330,3.0,5.0,44,0.00,,,0.00,Wunderground v.1.15,2013-08-24 21:33:00,
2013-08-24 17:39:00,80.3,57.6,30.23,ENE,75,3.0,5.0,46,0.00,,,0.00,Wunderground v.1.15,2013-08-24 21:39:00,
2013-08-24 17:46:00,79.6,57.6,30.22,WNW,297,3.0,7.0,47,0.00,,,0.00,Wunderground v.1.15,2013-08-24 21:46:00,
2013-08-24 17:52:00,79.0,56.5,30.22,WNW,292,4.0,7.0,46,0.00,,,0.00,Wunderground v.1.15,2013-08-24 21:52:00,
2013-08-24 17:59:00,79.1,56.5,30.23,NNW,329,4.0,5.0,46,0.00,,,0.00,Wunderground v.1.15,2013-08-24 21:59:00,
2013-08-24 18:05:00,78.9,56.4,30.22,NW,309,4.0,6.0,46,0.00,,,0.00,Wunderground v.1.15,2013-08-24 22:05:00,
2013-08-24 18:10:00,78.9,57.0,30.23,WNW,285,3.0,5.0,47,0.00,,,0.00,Wunderground v.1.15,2013-08-24 22:10:00,
2013-08-24 18:16:00,79.0,57.0,30.23,NW,311,3.0,5.0,47,0.00,,,0.00,Wunderground v.1.15,2013-08-24 22:16:00,
2013-08-24 18:21:00,79.4,57.4,30.23,NNW,330,2.0,5.0,47,0.00,,,0.00,Wunderground v.1.15,2013-08-24 22:21:00,
2013-08-24 18:27:00,78.9,57.0,30.23,North,8,2.0,5.0,47,0.00,,,0.00,Wunderground v.1.15,2013-08-24 22:27:00,
2013-08-24 18:32:00,78.5,56.6,30.23,WNW,293,3.0,9.0,47,0.00,,,0.00,Wunderground v.1.15,2013-08-24 22:32:00,
2013-08-24 18:38:00,78.1,57.4,30.22,WNW,288,3.0,7.0,49,0.00,,,0.00,Wunderground v.1.15,2013-08-24 22:38:00,
2013-08-24 18:43:00,78.1,57.4,30.22,NNW,330,3.0,7.0,49,0.00,,,0.00,Wunderground v.1.15,2013-08-24 22:43:00,
2013-08-24 18:50:00,78.3,58.7,30.23,NW,311,2.0,7.0,51,0.00,,,0.00,Wunderground v.1.15,2013-08-24 22:50:00,
2013-08-24 18:55:00,78.6,58.4,30.23,NW,304,1.0,7.0,50,0.00,,,0.00,Wunderground v.1.15,2013-08-24 22:55:00,
2013-08-24 19:01:00,78.1,59.0,30.23,NE,34,2.0,7.0,52,0.00,,,0.00,Wunderground v.1.15,2013-08-24 23:01:00,
2013-08-24 19:06:00,77.8,58.2,30.22,NE,34,2.0,7.0,51,0.00,,,0.00,Wunderground v.1.15,2013-08-24 23:06:00,
2013-08-24 19:12:00,77.6,59.1,30.23,NE,43,2.0,6.0,53,0.00,,,0.00,Wunderground v.1.15,2013-08-24 23:12:00,
2013-08-24 19:18:00,77.5,59.5,30.23,NW,311,1.0,6.0,54,0.00,,,0.00,Wunderground v.1.15,2013-08-24 23:18:00,
2013-08-24 19:23:00,77.5,59.5,30.23,North,1,1.0,6.0,54,0.00,,,0.00,Wunderground v.1.15,2013-08-24 23:23:00,
2013-08-24 19:28:00,77.0,59.6,30.23,NE,50,2.0,6.0,55,0.00,,,0.00,Wunderground v.1.15,2013-08-24 23:28:00,
2013-08-24 19:34:00,76.5,59.6,30.23,NE,36,2.0,6.0,56,0.00,,,0.00,Wunderground v.1.15,2013-08-24 23:34:00,
2013-08-24 19:40:00,75.9,59.6,30.23,NNW,330,2.0,7.0,57,0.00,,,0.00,Wunderground v.1.15,2013-08-24 23:40:00,
2013-08-24 19:46:00,75.3,59.5,30.23,NE,46,2.0,7.0,58,0.00,,,0.00,Wunderground v.1.15,2013-08-24 23:46:00,
2013-08-24 19:51:00,75.1,59.8,30.23,NNW,335,2.0,7.0,59,0.00,,,0.00,Wunderground v.1.15,2013-08-24 23:51:00,
2013-08-24 19:56:00,74.6,59.8,30.24,North,356,1.0,7.0,60,0.00,,,0.00,Wunderground v.1.15,2013-08-24 23:56:00,
2013-08-24 20:02:00,73.9,59.6,30.24,NNE,30,1.0,7.0,61,0.00,,,0.00,Wunderground v.1.15,2013-08-25 00:02:00,
2013-08-24 20:08:00,72.9,59.6,30.23,NNW,343,1.0,7.0,63,0.00,,,0.00,Wunderground v.1.15,2013-08-25 00:08:00,
2013-08-24 20:13:00,72.2,59.3,30.23,NNE,25,1.0,7.0,64,0.00,,,0.00,Wunderground v.1.15,2013-08-25 00:13:00,
2013-08-24 20:19:00,71.7,59.7,30.24,North,359,1.0,7.0,66,0.00,,,0.00,Wunderground v.1.15,2013-08-25 00:19:00,
2013-08-24 20:24:00,71.2,59.7,30.24,NE,41,0.0,7.0,67,0.00,,,0.00,Wunderground v.1.15,2013-08-25 00:24:00,
2013-08-24 20:30:00,70.8,59.7,30.24,NNE,18,1.0,7.0,68,0.00,,,0.00,Wunderground v.1.15,2013-08-25 00:30:00,
2013-08-24 20:35:00,70.3,59.6,30.24,ENE,69,0.0,7.0,69,0.00,,,0.00,Wunderground v.1.15,2013-08-25 00:35:00,
2013-08-24 20:40:00,70.0,59.8,30.25,NE,56,0.0,4.0,70,0.00,,,0.00,Wunderground v.1.15,2013-08-25 00:40:00,
2013-08-24 20:46:00,69.6,59.4,30.25,North,354,1.0,4.0,70,0.00,,,0.00,Wunderground v.1.15,2013-08-25 00:46:00,
2013-08-24 20:51:00,69.2,59.4,30.25,NNE,27,0.0,4.0,71,0.00,,,0.00,Wunderground v.1.15,2013-08-25 00:51:00,
2013-08-24 20:58:00,68.9,59.5,30.25,NE,44,0.0,4.0,72,0.00,,,0.00,Wunderground v.1.15,2013-08-25 00:58:00,
2013-08-24 21:03:00,68.6,59.6,30.25,NE,44,0.0,4.0,73,0.00,,,0.00,Wunderground v.1.15,2013-08-25 01:03:00,
2013-08-24 21:10:00,68.1,59.5,30.25,NNW,334,0.0,3.0,74,0.00,,,0.00,Wunderground v.1.15,2013-08-25 01:10:00,
2013-08-24 21:16:00,67.7,59.5,30.25,NNE,20,0.0,3.0,75,0.00,,,0.00,Wunderground v.1.15,2013-08-25 01:16:00,
2013-08-24 21:22:00,67.3,59.5,30.25,NNE,20,0.0,3.0,76,0.00,,,0.00,Wunderground v.1.15,2013-08-25 01:22:00,
2013-08-24 21:28:00,66.7,59.6,30.25,NNE,17,0.0,3.0,78,0.00,,,0.00,Wunderground v.1.15,2013-08-25 01:28:00,
2013-08-24 21:33:00,66.2,59.5,30.26,NNE,18,0.0,3.0,79,0.00,,,0.00,Wunderground v.1.15,2013-08-25 01:33:00,
2013-08-24 21:38:00,65.7,59.4,30.25,NNE,20,0.0,2.0,80,0.00,,,0.00,Wunderground v.1.15,2013-08-25 01:38:00,
2013-08-24 21:43:00,65.1,59.1,30.26,NNE,20,0.0,2.0,81,0.00,,,0.00,Wunderground v.1.15,2013-08-25 01:43:00,
2013-08-24 21:48:00,64.6,59.0,30.26,NNE,20,0.0,2.0,82,0.00,,,0.00,Wunderground v.1.15,2013-08-25 01:48:00,
2013-08-24 21:54:00,64.1,58.8,30.26,NNE,20,0.0,2.0,83,0.00,,,0.00,Wunderground v.1.15,2013-08-25 01:54:00,
2013-08-24 22:00:00,63.6,58.7,30.26,NNE,20,0.0,2.0,84,0.00,,,0.00,Wunderground v.1.15,2013-08-25 02:00:00,
2013-08-24 22:05:00,63.3,58.7,30.26,West,264,0.0,2.0,85,0.00,,,0.00,Wunderground v.1.15,2013-08-25 02:05:00,
2013-08-24 22:10:00,62.9,58.6,30.26,West,262,0.0,0.0,86,0.00,,,0.00,Wunderground v.1.15,2013-08-25 02:10:00,
2013-08-24 22:18:00,62.4,58.5,30.26,West,263,0.0,0.0,87,0.00,,,0.00,Wunderground v.1.15,2013-08-25 02:18:00,
2013-08-24 22:23:00,62.0,58.1,30.26,West,263,0.0,0.0,87,0.00,,,0.00,Wunderground v.1.15,2013-08-25 02:23:00,
2013-08-24 22:28:00,61.6,58.0,30.26,West,263,0.0,0.0,88,0.00,,,0.00,Wunderground v.1.15,2013-08-25 02:28:00,
2013-08-24 22:33:00,61.1,57.5,30.26,West,263,0.0,0.0,88,0.00,,,0.00,Wunderground v.1.15,2013-08-25 02:33:00,
2013-08-24 22:39:00,60.6,57.3,30.26,West,263,0.0,0.0,89,0.00,,,0.00,Wunderground v.1.15,2013-08-25 02:39:00,
2013-08-24 22:44:00,60.5,57.6,30.26,West,262,0.0,0.0,90,0.00,,,0.00,Wunderground v.1.15,2013-08-25 02:44:00,
2013-08-24 22:50:00,60.4,57.5,30.26,West,262,0.0,0.0,90,0.00,,,0.00,Wunderground v.1.15,2013-08-25 02:50:00,
2013-08-24 22:56:00,60.0,57.1,30.26,West,263,0.0,0.0,90,0.00,,,0.00,Wunderground v.1.15,2013-08-25 02:56:00,
2013-08-24 23:01:00,59.7,57.1,30.26,West,263,0.0,0.0,91,0.00,,,0.00,Wunderground v.1.15,2013-08-25 03:01:00,
2013-08-24 23:07:00,59.5,56.9,30.25,West,263,0.0,0.0,91,0.00,,,0.00,Wunderground v.1.15,2013-08-25 03:07:00,
2013-08-24 23:13:00,59.2,56.9,30.25,West,263,0.0,0.0,92,0.00,,,0.00,Wunderground v.1.15,2013-08-25 03:13:00,
2013-08-24 23:18:00,59.1,56.8,30.25,West,263,0.0,0.0,92,0.00,,,0.00,Wunderground v.1.15,2013-08-25 03:18:00,
2013-08-24 23:24:00,59.3,57.0,30.25,WSW,243,0.0,0.0,92,0.00,,,0.00,Wunderground v.1.15,2013-08-25 03:24:00,
2013-08-24 23:30:00,59.2,56.9,30.25,WSW,243,0.0,0.0,92,0.00,,,0.00,Wunderground v.1.15,2013-08-25 03:30:00,
2013-08-24 23:36:00,59.0,56.7,30.25,WSW,243,0.0,0.0,92,0.00,,,0.00,Wunderground v.1.15,2013-08-25 03:36:00,
2013-08-24 23:41:00,59.0,56.7,30.25,WSW,243,0.0,0.0,92,0.00,,,0.00,Wunderground v.1.15,2013-08-25 03:41:00,
2013-08-24 23:47:00,59.0,57.0,30.25,WSW,243,0.0,0.0,93,0.00,,,0.00,Wunderground v.1.15,2013-08-25 03:47:00,
2013-08-24 23:53:00,58.8,56.5,30.25,WSW,243,0.0,0.0,92,0.00,,,0.00,Wunderground v.1.15,2013-08-25 03:53:00,
2013-08-24 23:59:00,58.5,56.2,30.26,WSW,243,0.0,0.0,92,0.00,,,0.00,Wunderground v.1.15,2013-08-25 03:59:00,